Weather History for Rockport, TX

Change the Weather History Date:

Saturday, November 3, 2012

  Actual Average Record
Temperature  
Mean Temperature 78 °F -  
Max Temperature 84 °F 75 °F 85 °F (1973)
Min Temperature 68 °F 58 °F 39 °F (1991)
Cooling Degree Days 12    
Growing Degree Days 28 (Base 50)    
Moisture  
Dew Point 70 °F    
Average Humidity 79    
Maximum Humidity 94    
Minimum Humidity 56    
Precipitation  
Precipitation 0.10 in - - ()
Sea Level Pressure  
Sea Level Pressure 30.02 in    
Wind  
Wind Speed 8 mph (SSE)    
Max Wind Speed 14 mph    
Max Gust Speed 22 mph    
Visibility 10 miles    
Events Rain , Thunderstorm    
Averages and records for this station are not official NWS values.
T = Trace of Precipitation, MM = Missing Value Source: NWS Daily Summary

Daily Weather History Graph

Daily Weather History Graph

Search for Another Location

Airport:

Trip Planner

Search our weather history database for the weather conditions in past years. The results will help you decide how hot, cold, wet, or windy it might be!

Date:

Astronomy

Nov. 03, 2012 Rise Set
Actual Time 7:41 AM CDT 6:41 PM CDT
Civil Twilight 7:16 AM CDT 7:06 PM CDT
Nautical Twilight 6:49 AM CDT 7:34 PM CDT
Astronomical Twilight 6:21 AM CDT 8:01 PM CDT
Moon 10:31 PM CDT (11/3) 11:37 AM CDT (11/3)
Length of Visible Light 11h 49m
Length of Day
11h 00m
Waning Gibbous, 80% of the Moon is Illuminated
Nov 3
Waning Gibbous
Nov 6
Last Quarter
Nov 13
New
Nov 20
First Quarter
Nov 28
Full

Hourly Weather History & Observations

Time (CDT) Temp. Heat Index Dew Point Humidity Pressure Visibility Wind Dir Wind Speed Gust Speed Precip Events Conditions
12:53 AM 75.9 °F - 70.0 °F 82% 29.99 in 10.0 mi SSE 10.4 mph - N/A   Clear
1:53 AM 75.9 °F - 70.0 °F 82% 29.99 in 10.0 mi SSE 8.1 mph - N/A   Clear
2:53 AM 75.9 °F - 70.0 °F 82% 29.98 in 10.0 mi SSE 8.1 mph - N/A   Clear
3:53 AM 75.0 °F - 70.0 °F 84% 29.99 in 10.0 mi SSE 6.9 mph - N/A   Clear
4:53 AM 75.0 °F - 70.0 °F 84% 29.99 in 10.0 mi SSE 4.6 mph - N/A   Partly Cloudy
5:53 AM 73.9 °F - 70.0 °F 87% 30.00 in 10.0 mi SSE 5.8 mph - N/A   Clear
6:53 AM 73.0 °F - 70.0 °F 90% 30.01 in 10.0 mi SSE 3.5 mph - N/A   Partly Cloudy
7:53 AM 72.0 °F - 69.1 °F 91% 30.01 in 10.0 mi SSE 4.6 mph - N/A   Clear
8:53 AM 77.0 °F - 72.0 °F 84% 30.04 in 10.0 mi SSE 3.5 mph - N/A   Partly Cloudy
9:53 AM 80.1 °F 82.9 °F 69.1 °F 69% 30.06 in 10.0 mi SSE 9.2 mph - N/A   Clear
10:53 AM 82.0 °F 84.5 °F 66.9 °F 60% 30.07 in 10.0 mi South 6.9 mph 19.6 mph N/A   Clear
11:53 AM 82.9 °F 85.0 °F 66.0 °F 56% 30.06 in 10.0 mi SSE 9.2 mph - N/A   Clear
12:53 PM 82.0 °F 84.5 °F 66.9 °F 60% 30.05 in 10.0 mi SSE 9.2 mph 18.4 mph N/A   Clear
1:53 PM 82.9 °F 86.5 °F 69.1 °F 63% 30.02 in 10.0 mi SSE 11.5 mph 21.9 mph N/A   Clear
2:53 PM 84.9 °F 89.4 °F 70.0 °F 61% 29.99 in 10.0 mi SE 13.8 mph - N/A   Partly Cloudy
3:53 PM 82.9 °F 87.0 °F 70.0 °F 65% 29.98 in 10.0 mi SSE 13.8 mph 19.6 mph N/A   Clear
4:53 PM 82.0 °F 85.9 °F 70.0 °F 67% 29.96 in 10.0 mi SE 12.7 mph - N/A   Clear
5:53 PM 79.0 °F - 71.1 °F 77% 29.98 in 10.0 mi SE 11.5 mph - N/A   Clear
6:53 PM 78.1 °F - 71.1 °F 79% 29.99 in 10.0 mi SE 9.2 mph - N/A   Clear
7:26 PM 78.8 °F - 71.6 °F 78% 30.01 in 10.0 mi ESE 9.2 mph - N/A Thunderstorm Mostly Cloudy
7:53 PM 77.0 °F - 70.0 °F 79% 30.02 in 10.0 mi ESE 9.2 mph - 0.00 in Thunderstorm Overcast
8:53 PM 73.9 °F - 72.0 °F 93% 30.04 in 4.0 mi SSW 3.5 mph - 0.09 in Rain , Thunderstorm Thunderstorms and Rain
9:53 PM 75.0 °F - 72.0 °F 90% 30.04 in 10.0 mi SSE 6.9 mph - 0.01 in   Scattered Clouds
10:05 PM 73.4 °F - 71.6 °F 94% 30.04 in 9.0 mi South 5.8 mph - N/A Thunderstorm Scattered Clouds
10:16 PM 73.4 °F - 69.8 °F 88% 30.03 in 10.0 mi South 9.2 mph - N/A   Mostly Cloudy
10:27 PM 71.6 °F - 68.0 °F 88% 30.03 in 10.0 mi ESE 10.4 mph - N/A   Scattered Clouds
10:53 PM 71.1 °F - 66.0 °F 84% 30.04 in 10.0 mi ESE 6.9 mph - N/A   Scattered Clouds
11:53 PM 68.0 °F - 64.9 °F 90% 30.05 in 10.0 mi Calm Calm - N/A   Clear